Location: *
(43.2048°N, 0.1612°E)
Time: 20:02:04
(UTC+00:00)

GP-B - Pass Details

Date: 30 September 2023
Orbit: 627 x 630 km, 89.8° (Epoch: 06 December)

Event Time Altitude Azimuth Distance (km) Brightness Sun altitude
Exits shadow 03:50:44 - 169° (S) 2,598 6.2 -23.1°
Reaches altitude 10° 03:52:12 10° 167° (SSE) 2,000 5.6 -22.9°
Maximum altitude 03:56:33 67° 86° (E) 687 3.4 -22.1°
Drops below altitude 10° 04:00:58 10° 4° (N) 2,019 5.9 -21.4°
Sets 04:03:12 0° 1° (N) 2,932 6.8 -21.0°
